Simultaneous Nadir Overpasses (SNOs) Predictions

Prediction of SNOs between GOES-14 and NPP Satellite Orbit:

Table of predicted SNOs for the next 14.0 days since TLE Epoch: 12/10/2022
Index Date Time (GOES-14) GOES-14 Lat,Lon NPP Lat,Lon Distance(km) Time Diff (sec)
1 12/11/2022 08:27:24 -0.04,-104.38 0.12,-104.97 68.41 80
2 12/12/2022 08:06:01 -0.03,-104.37 -0.94,-100.45 446.96 80
3 12/13/2022 20:27:58 0.05,-104.02 -0.33,-105.74 196.03 80
4 12/14/2022 20:11:55 0.04,-104.03 0.67,-101.21 320.94 80
5 12/16/2022 08:33:46 -0.06,-104.39 0.42,-106.51 240.98 80
6 12/17/2022 08:12:23 -0.05,-104.39 -0.58,-101.98 274.73 80
7 12/18/2022 20:34:20 0.06,-104.02 -0.67,-107.27 370.52 80
8 12/19/2022 20:18:17 0.05,-104.03 0.33,-102.74 146.36 80
9 12/21/2022 08:40:08 -0.06,-104.41 0.76,-108.03 413.55 80
10 12/22/2022 08:18:44 -0.05,-104.40 -0.25,-103.50 101.89 80
